Time,TemperatureF,DewpointF,PressureIn,WindDirection,WindDirectionDegrees,WindSpeedMPH,WindSpeedGustMPH,Humidity,HourlyPrecipIn,Conditions,Clouds,dailyrainin,SoftwareType,DateUTC
2013-01-13 00:03:00,65.0,60.0,-100.00,West,275,9.0,17.0,84,0.00,,,-99.99,,2013-01-13 05:03:00,
2013-01-13 00:12:00,65.0,60.0,-100.00,West,265,9.0,17.0,83,0.00,,,-99.99,,2013-01-13 05:12:00,
2013-01-13 00:22:00,65.0,60.0,-100.00,West,265,9.0,14.0,83,0.00,,,-99.99,,2013-01-13 05:22:00,
2013-01-13 00:32:00,66.0,60.0,-100.00,West,275,11.0,16.0,82,0.00,,,-99.99,,2013-01-13 05:32:00,
2013-01-13 00:42:00,66.0,60.0,-100.00,West,275,9.0,20.0,80,0.00,,,-99.99,,2013-01-13 05:42:00,
2013-01-13 00:52:00,66.0,60.0,-100.00,West,265,11.0,16.0,79,0.00,,,-99.99,,2013-01-13 05:52:00,
2013-01-13 01:03:00,66.0,60.0,-100.00,West,275,12.0,19.0,78,0.00,,,-99.99,,2013-01-13 06:03:00,
2013-01-13 01:12:00,67.0,60.0,-100.00,West,270,11.0,19.0,77,0.00,,,-99.99,,2013-01-13 06:12:00,
2013-01-13 01:22:00,67.0,59.0,-100.00,West,270,12.0,22.0,77,0.00,,,-99.99,,2013-01-13 06:22:00,
2013-01-13 01:32:00,66.0,59.0,-100.00,West,275,12.0,20.0,77,0.00,,,-99.99,,2013-01-13 06:32:00,
2013-01-13 01:42:00,66.0,59.0,-100.00,West,270,11.0,23.0,76,0.00,,,-99.99,,2013-01-13 06:42:00,
2013-01-13 01:52:00,66.0,59.0,-100.00,West,270,12.0,19.0,76,0.00,,,-99.99,,2013-01-13 06:52:00,
2013-01-13 02:02:00,67.0,59.0,-100.00,West,265,11.0,16.0,75,0.00,,,-99.99,,2013-01-13 07:02:00,
2013-01-13 02:12:00,66.0,58.0,-100.00,West,260,12.0,22.0,76,0.00,,,-99.99,,2013-01-13 07:12:00,
2013-01-13 02:22:00,67.0,58.0,-100.00,West,265,14.0,21.0,74,0.00,,,-99.99,,2013-01-13 07:22:00,
2013-01-13 02:32:00,66.0,58.0,-100.00,West,270,11.0,19.0,75,0.00,,,-99.99,,2013-01-13 07:32:00,
2013-01-13 02:42:00,67.0,58.0,-100.00,West,275,15.0,22.0,74,0.00,,,-99.99,,2013-01-13 07:42:00,
2013-01-13 02:52:00,67.0,58.0,-100.00,West,270,13.0,19.0,73,0.00,,,-99.99,,2013-01-13 07:52:00,
2013-01-13 03:02:00,67.0,58.0,-100.00,West,280,15.0,29.0,71,0.00,,,-99.99,,2013-01-13 08:02:00,
2013-01-13 03:12:00,67.0,58.0,-100.00,West,275,14.0,21.0,72,0.00,,,-99.99,,2013-01-13 08:12:00,
2013-01-13 03:22:00,67.0,57.0,-100.00,West,265,12.0,22.0,71,0.00,,,-99.99,,2013-01-13 08:22:00,
2013-01-13 03:32:00,67.0,58.0,-100.00,WNW,285,11.0,21.0,73,0.00,,,-99.99,,2013-01-13 08:32:00,
2013-01-13 03:42:00,67.0,57.0,-100.00,West,265,15.0,19.0,71,0.00,,,-99.99,,2013-01-13 08:42:00,
2013-01-13 03:52:00,66.0,58.0,-100.00,WNW,285,12.0,24.0,73,1.69,,,-99.99,,2013-01-13 08:52:00,
2013-01-13 04:02:00,66.0,58.0,-100.00,West,275,15.0,24.0,74,0.00,,,-99.99,,2013-01-13 09:02:00,
2013-01-13 04:12:00,65.0,58.0,-100.00,WNW,285,11.0,19.0,80,16.42,,,-99.99,,2013-01-13 09:12:00,
2013-01-13 04:22:00,64.0,59.0,-100.00,North,0,11.0,19.0,85,3.39,,,-99.99,,2013-01-13 09:22:00,
2013-01-13 04:32:00,63.0,59.0,-100.00,North,0,4.0,14.0,87,1.10,,,-99.99,,2013-01-13 09:32:00,
2013-01-13 04:42:00,62.0,58.0,-100.00,North,0,4.0,13.0,87,0.00,,,-99.99,,2013-01-13 09:42:00,
2013-01-13 04:52:00,62.0,58.0,-100.00,North,0,4.0,11.0,88,2.83,,,-99.99,,2013-01-13 09:52:00,
2013-01-13 05:03:00,61.0,58.0,-100.00,NW,325,4.0,7.0,88,0.55,,,-99.99,,2013-01-13 10:03:00,
2013-01-13 05:12:00,61.0,58.0,-100.00,WNW,295,2.0,9.0,88,5.08,,,-99.99,,2013-01-13 10:12:00,
2013-01-13 05:22:00,61.0,58.0,-100.00,NW,325,7.0,9.0,89,1.10,,,-99.99,,2013-01-13 10:22:00,
2013-01-13 05:32:00,61.0,57.0,-100.00,WNW,290,5.0,13.0,89,1.69,,,-99.99,,2013-01-13 10:32:00,
2013-01-13 05:42:00,60.0,57.0,-100.00,West,280,6.0,9.0,90,2.83,,,-99.99,,2013-01-13 10:42:00,
2013-01-13 05:52:00,60.0,57.0,-100.00,West,270,5.0,9.0,90,0.00,,,-99.99,,2013-01-13 10:52:00,
2013-01-13 06:02:00,60.0,57.0,-100.00,West,275,6.0,12.0,91,0.55,,,-99.99,,2013-01-13 11:02:00,
2013-01-13 06:12:00,60.0,57.0,-100.00,WNW,285,4.0,7.0,91,0.00,,,-99.99,,2013-01-13 11:12:00,
2013-01-13 06:22:00,60.0,57.0,-100.00,WNW,300,4.0,9.0,91,2.83,,,-99.99,,2013-01-13 11:22:00,
2013-01-13 06:33:00,59.0,57.0,-100.00,WNW,290,5.0,9.0,92,0.00,,,-99.99,,2013-01-13 11:33:00,
2013-01-13 06:42:00,59.0,57.0,-100.00,West,275,5.0,11.0,92,2.24,,,-99.99,,2013-01-13 11:42:00,
2013-01-13 06:52:00,59.0,57.0,-100.00,WSW,255,6.0,10.0,92,0.55,,,-99.99,,2013-01-13 11:52:00,
2013-01-13 07:03:00,59.0,57.0,-100.00,West,275,4.0,9.0,91,0.00,,,-99.99,,2013-01-13 12:03:00,
2013-01-13 07:12:00,59.0,57.0,-100.00,NW,310,2.0,7.0,91,0.00,,,-99.99,,2013-01-13 12:12:00,
2013-01-13 07:22:00,59.0,57.0,-100.00,West,270,2.0,6.0,91,0.00,,,-99.99,,2013-01-13 12:22:00,
2013-01-13 07:33:00,59.0,56.0,-100.00,West,260,2.0,4.0,91,0.00,,,-99.99,,2013-01-13 12:33:00,
2013-01-13 07:42:00,59.0,56.0,-100.00,West,260,2.0,6.0,92,0.55,,,-99.99,,2013-01-13 12:42:00,
2013-01-13 07:52:00,58.0,56.0,-100.00,West,280,3.0,6.0,93,0.55,,,-99.99,,2013-01-13 12:52:00,
2013-01-13 08:03:00,58.0,56.0,-100.00,West,260,3.0,6.0,93,0.00,,,-99.99,,2013-01-13 13:03:00,
2013-01-13 08:12:00,58.0,56.0,-100.00,WSW,255,1.0,4.0,94,0.00,,,-99.99,,2013-01-13 13:12:00,
2013-01-13 08:22:00,58.0,56.0,-100.00,West,275,4.0,5.0,94,1.10,,,-99.99,,2013-01-13 13:22:00,
2013-01-13 08:33:00,58.0,56.0,-100.00,West,270,4.0,9.0,94,0.00,,,-99.99,,2013-01-13 13:33:00,
2013-01-13 08:42:00,58.0,57.0,-100.00,West,265,6.0,12.0,94,0.00,,,-99.99,,2013-01-13 13:42:00,
2013-01-13 08:53:00,59.0,57.0,-100.00,West,265,4.0,9.0,93,0.00,,,-99.99,,2013-01-13 13:53:00,
2013-01-13 09:03:00,58.0,56.0,-100.00,SW,235,4.0,7.0,93,0.00,,,-99.99,,2013-01-13 14:03:00,
2013-01-13 09:12:00,58.0,56.0,-100.00,SW,235,4.0,7.0,93,0.00,,,-99.99,,2013-01-13 14:12:00,
2013-01-13 09:22:00,58.0,56.0,-100.00,WSW,240,4.0,7.0,93,0.00,,,-99.99,,2013-01-13 14:22:00,
2013-01-13 09:33:00,58.0,57.0,-100.00,SW,220,7.0,12.0,94,0.00,,,-99.99,,2013-01-13 14:33:00,
2013-01-13 09:43:00,58.0,57.0,-100.00,SW,235,6.0,12.0,94,0.00,,,-99.99,,2013-01-13 14:43:00,
2013-01-13 09:52:00,58.0,57.0,-100.00,WSW,250,7.0,12.0,94,0.55,,,-99.99,,2013-01-13 14:52:00,
2013-01-13 10:03:00,58.0,56.0,-100.00,WSW,240,6.0,11.0,93,0.55,,,-99.99,,2013-01-13 15:03:00,
2013-01-13 10:12:00,58.0,56.0,-100.00,SW,235,7.0,13.0,93,0.00,,,-99.99,,2013-01-13 15:12:00,
2013-01-13 10:23:00,58.0,56.0,-100.00,SW,225,7.0,12.0,93,1.10,,,-99.99,,2013-01-13 15:23:00,
2013-01-13 10:33:00,58.0,56.0,-100.00,SW,225,6.0,11.0,93,0.00,,,-99.99,,2013-01-13 15:33:00,
2013-01-13 10:43:00,58.0,56.0,-100.00,SW,215,4.0,10.0,93,0.00,,,-99.99,,2013-01-13 15:43:00,
2013-01-13 10:52:00,58.0,56.0,-100.00,WSW,245,4.0,6.0,93,0.00,,,-99.99,,2013-01-13 15:52:00,
2013-01-13 11:03:00,58.0,56.0,-100.00,West,265,7.0,13.0,92,1.10,,,-99.99,,2013-01-13 16:03:00,
2013-01-13 11:12:00,58.0,56.0,-100.00,West,270,6.0,11.0,92,0.00,,,-99.99,,2013-01-13 16:12:00,
2013-01-13 11:23:00,58.0,56.0,-100.00,West,265,4.0,9.0,91,0.00,,,-99.99,,2013-01-13 16:23:00,
2013-01-13 11:33:00,59.0,56.0,-100.00,West,265,6.0,9.0,91,0.00,,,-99.99,,2013-01-13 16:33:00,
2013-01-13 11:43:00,59.0,56.0,-100.00,West,270,6.0,10.0,91,0.00,,,-99.99,,2013-01-13 16:43:00,
2013-01-13 11:53:00,59.0,56.0,-100.00,West,265,7.0,10.0,91,0.00,,,-99.99,,2013-01-13 16:53:00,
2013-01-13 12:03:00,59.0,56.0,-100.00,West,275,6.0,9.0,91,0.55,,,-99.99,,2013-01-13 17:03:00,
2013-01-13 12:12:00,59.0,56.0,-100.00,West,270,7.0,13.0,91,1.10,,,-99.99,,2013-01-13 17:12:00,
2013-01-13 12:22:00,59.0,56.0,-100.00,West,260,12.0,16.0,90,0.55,,,-99.99,,2013-01-13 17:22:00,
2013-01-13 12:33:00,59.0,56.0,-100.00,WSW,245,11.0,16.0,91,1.10,,,-99.99,,2013-01-13 17:33:00,
2013-01-13 12:42:00,58.0,56.0,-100.00,West,270,10.0,19.0,91,0.55,,,-99.99,,2013-01-13 17:42:00,
2013-01-13 12:53:00,59.0,56.0,-100.00,West,280,9.0,14.0,90,0.00,,,-99.99,,2013-01-13 17:53:00,
2013-01-13 13:03:00,59.0,56.0,-100.00,West,270,6.0,12.0,90,0.00,,,-99.99,,2013-01-13 18:03:00,
2013-01-13 13:12:00,59.0,56.0,-100.00,West,265,7.0,12.0,89,0.00,,,-99.99,,2013-01-13 18:12:00,
2013-01-13 13:23:00,59.0,56.0,-100.00,WSW,250,5.0,10.0,88,0.00,,,-99.99,,2013-01-13 18:23:00,
2013-01-13 13:33:00,59.0,56.0,-100.00,West,270,4.0,9.0,88,0.55,,,-99.99,,2013-01-13 18:33:00,
2013-01-13 13:43:00,59.0,56.0,-100.00,West,260,6.0,11.0,89,0.00,,,-99.99,,2013-01-13 18:43:00,
2013-01-13 13:53:00,59.0,56.0,-100.00,West,260,4.0,10.0,87,0.55,,,-99.99,,2013-01-13 18:53:00,
2013-01-13 14:03:00,59.0,56.0,-100.00,SW,235,7.0,10.0,88,0.00,,,-99.99,,2013-01-13 19:03:00,
2013-01-13 14:12:00,59.0,56.0,-100.00,West,265,6.0,9.0,88,0.00,,,-99.99,,2013-01-13 19:12:00,
2013-01-13 14:22:00,59.0,56.0,-100.00,WSW,255,6.0,9.0,89,0.55,,,-99.99,,2013-01-13 19:22:00,
2013-01-13 14:33:00,59.0,56.0,-100.00,WSW,255,4.0,9.0,89,0.55,,,-99.99,,2013-01-13 19:33:00,
2013-01-13 14:43:00,59.0,56.0,-100.00,West,275,6.0,9.0,90,0.55,,,-99.99,,2013-01-13 19:43:00,
2013-01-13 14:52:00,58.0,56.0,-100.00,WNW,285,6.0,9.0,91,0.55,,,-99.99,,2013-01-13 19:52:00,
2013-01-13 15:03:00,59.0,56.0,-100.00,West,270,8.0,11.0,91,2.24,,,-99.99,,2013-01-13 20:03:00,
2013-01-13 15:12:00,58.0,56.0,-100.00,West,275,8.0,12.0,91,5.08,,,-99.99,,2013-01-13 20:12:00,
2013-01-13 15:22:00,58.0,56.0,-100.00,West,275,7.0,12.0,93,2.83,,,-99.99,,2013-01-13 20:22:00,
2013-01-13 15:33:00,58.0,56.0,-100.00,West,280,6.0,9.0,93,1.69,,,-99.99,,2013-01-13 20:33:00,
2013-01-13 15:43:00,58.0,56.0,-100.00,West,270,9.0,13.0,93,1.10,,,-99.99,,2013-01-13 20:43:00,
2013-01-13 15:53:00,59.0,56.0,-100.00,West,260,9.0,13.0,92,1.10,,,-99.99,,2013-01-13 20:53:00,
2013-01-13 16:03:00,59.0,56.0,-100.00,West,260,9.0,13.0,92,1.10,,,-99.99,,2013-01-13 21:03:00,
2013-01-13 16:12:00,59.0,57.0,-100.00,West,265,9.0,19.0,93,1.69,,,-99.99,,2013-01-13 21:12:00,
2013-01-13 16:23:00,59.0,57.0,-100.00,West,265,8.0,16.0,92,2.83,,,-99.99,,2013-01-13 21:23:00,
2013-01-13 16:33:00,59.0,57.0,-100.00,West,275,8.0,14.0,92,1.10,,,-99.99,,2013-01-13 21:33:00,
2013-01-13 16:43:00,59.0,57.0,-100.00,West,265,9.0,14.0,92,1.69,,,-99.99,,2013-01-13 21:43:00,
2013-01-13 16:52:00,59.0,57.0,-100.00,West,275,7.0,14.0,92,2.83,,,-99.99,,2013-01-13 21:52:00,
2013-01-13 17:03:00,59.0,57.0,-100.00,West,280,9.0,13.0,93,2.83,,,-99.99,,2013-01-13 22:03:00,
2013-01-13 17:12:00,59.0,57.0,-100.00,West,280,8.0,12.0,92,2.83,,,-99.99,,2013-01-13 22:12:00,
2013-01-13 17:22:00,59.0,57.0,-100.00,WSW,255,10.0,16.0,92,0.55,,,-99.99,,2013-01-13 22:22:00,
2013-01-13 17:33:00,59.0,57.0,-100.00,WSW,250,9.0,19.0,93,0.55,,,-99.99,,2013-01-13 22:33:00,
2013-01-13 17:43:00,59.0,57.0,-100.00,West,260,6.0,12.0,92,1.69,,,-99.99,,2013-01-13 22:43:00,
2013-01-13 17:52:00,59.0,57.0,-100.00,West,270,7.0,12.0,93,2.24,,,-99.99,,2013-01-13 22:52:00,
2013-01-13 18:02:00,59.0,57.0,-100.00,West,270,7.0,12.0,92,1.10,,,-99.99,,2013-01-13 23:02:00,
2013-01-13 18:12:00,59.0,57.0,-100.00,West,260,9.0,14.0,91,0.55,,,-99.99,,2013-01-13 23:12:00,
2013-01-13 18:23:00,59.0,57.0,-100.00,WNW,285,9.0,12.0,91,0.55,,,-99.99,,2013-01-13 23:23:00,
2013-01-13 18:33:00,59.0,57.0,-100.00,NW,315,3.0,13.0,91,3.39,,,-99.99,,2013-01-13 23:33:00,
2013-01-13 18:42:00,50.0,47.0,-100.00,NE,40,10.0,25.0,88,7.36,,,-99.99,,2013-01-13 23:42:00,
2013-01-13 18:52:00,47.0,45.0,-100.00,East,80,8.0,16.0,90,5.67,,,-99.99,,2013-01-13 23:52:00,
2013-01-13 19:03:00,46.0,43.0,-100.00,East,80,9.0,17.0,90,5.67,,,-99.99,,2013-01-14 00:03:00,
2013-01-13 19:12:00,44.0,41.0,-100.00,NE,55,9.0,22.0,88,0.55,,,-99.99,,2013-01-14 00:12:00,
2013-01-13 19:22:00,44.0,41.0,-100.00,ENE,65,7.0,16.0,88,2.24,,,-99.99,,2013-01-14 00:22:00,
2013-01-13 19:33:00,44.0,41.0,-100.00,East,80,7.0,13.0,88,2.83,,,-99.99,,2013-01-14 00:33:00,
2013-01-13 19:43:00,44.0,41.0,-100.00,ENE,60,5.0,12.0,90,1.10,,,-99.99,,2013-01-14 00:43:00,
2013-01-13 19:52:00,44.0,41.0,-100.00,East,85,9.0,19.0,90,2.24,,,-99.99,,2013-01-14 00:52:00,
2013-01-13 20:03:00,43.0,40.0,-100.00,ENE,65,6.0,15.0,90,2.24,,,-99.99,,2013-01-14 01:03:00,
2013-01-13 20:12:00,42.0,40.0,-100.00,NNE,30,6.0,14.0,90,3.39,,,-99.99,,2013-01-14 01:12:00,
2013-01-13 20:22:00,42.0,39.0,-100.00,NE,40,7.0,18.0,89,2.24,,,-99.99,,2013-01-14 01:22:00,
2013-01-13 20:33:00,41.0,38.0,-100.00,East,95,9.0,16.0,89,0.55,,,-99.99,,2013-01-14 01:33:00,
2013-01-13 20:42:00,41.0,38.0,-100.00,East,80,9.0,19.0,89,0.55,,,-99.99,,2013-01-14 01:42:00,
2013-01-13 20:52:00,41.0,38.0,-100.00,ENE,70,7.0,19.0,88,0.00,,,-99.99,,2013-01-14 01:52:00,
2013-01-13 21:03:00,40.0,36.0,-100.00,NE,55,12.0,19.0,86,0.00,,,-99.99,,2013-01-14 02:03:00,
2013-01-13 21:12:00,40.0,36.0,-100.00,NNE,30,9.0,17.0,86,0.00,,,-99.99,,2013-01-14 02:12:00,
2013-01-13 21:22:00,39.0,35.0,-100.00,NE,40,12.0,20.0,85,1.10,,,-99.99,,2013-01-14 02:22:00,
2013-01-13 21:33:00,38.0,35.0,-100.00,NE,50,7.0,16.0,87,1.10,,,-99.99,,2013-01-14 02:33:00,
2013-01-13 21:42:00,38.0,35.0,-100.00,East,80,6.0,12.0,87,0.00,,,-99.99,,2013-01-14 02:42:00,
2013-01-13 21:53:00,38.0,35.0,-100.00,ENE,70,7.0,14.0,87,0.00,,,-99.99,,2013-01-14 02:53:00,
2013-01-13 22:03:00,39.0,35.0,-100.00,NNE,25,7.0,15.0,85,0.00,,,-99.99,,2013-01-14 03:03:00,
2013-01-13 22:12:00,39.0,35.0,-100.00,NE,35,9.0,13.0,85,0.00,,,-99.99,,2013-01-14 03:12:00,
2013-01-13 22:22:00,39.0,34.0,-100.00,NE,35,8.0,15.0,83,0.00,,,-99.99,,2013-01-14 03:22:00,
2013-01-13 22:33:00,38.0,34.0,-100.00,NE,45,6.0,11.0,84,0.00,,,-99.99,,2013-01-14 03:33:00,
2013-01-13 22:42:00,38.0,34.0,-100.00,NE,35,6.0,14.0,83,0.00,,,-99.99,,2013-01-14 03:42:00,
2013-01-13 22:52:00,38.0,34.0,-100.00,NNE,30,7.0,11.0,82,0.00,,,-99.99,,2013-01-14 03:52:00,
2013-01-13 23:03:00,38.0,34.0,-100.00,NE,35,6.0,10.0,83,0.00,,,-99.99,,2013-01-14 04:03:00,
2013-01-13 23:12:00,38.0,33.0,-100.00,NE,55,6.0,14.0,82,0.00,,,-99.99,,2013-01-14 04:12:00,
2013-01-13 23:22:00,38.0,33.0,-100.00,NE,55,7.0,12.0,82,0.00,,,-99.99,,2013-01-14 04:22:00,
2013-01-13 23:32:00,38.0,33.0,-100.00,ENE,65,6.0,12.0,81,0.00,,,-99.99,,2013-01-14 04:32:00,
2013-01-13 23:42:00,38.0,33.0,-100.00,ENE,65,4.0,14.0,81,0.00,,,-99.99,,2013-01-14 04:42:00,
2013-01-13 23:52:00,38.0,33.0,-100.00,ENE,70,2.0,7.0,82,0.00,,,-99.99,,2013-01-14 04:52:00,